User: anonymous
Location: Melbourne
(37.8170°S, 144.9670°E)
Time: 15:52:03
(UTC+10:00)
Language:

CZ-3 R/B - Orbit

View from above orbital plane
View from above orbital plane
View from above satellite
View from above satellite

Ground track
Ground track

The orbit data is extracted from the following two-line orbital elements,

1 29517U 06048B   14107.95388569  .00055825  00000-0  15661-2 0  3594
2 29517 028.5189 295.1317 5351226 200.7236 348.0810 05.14788082 96698
Epoch (UTC): 17 April 2014 22:53:35
Eccentricity: 0.5351226
inclination: 28.5189°
perigee height: 208 km
apogee height: 15372 km
right ascension of ascending node: 295.1317°
argument of perigee: 200.7236°
revolutions per day: 5.14788082
mean anomaly at epoch: 348.0810°
orbit number at epoch: 9669

The dashed part of the orbit path shows where the satellite is in the earth's shadow,  

DLR